GFSSW_925_thetae_057.txt.gz
Theta_e
307 307 307 308 307 308 307 307 308 308 308 309 309 307 301 300 301 304 303 303 305 304 304 307 321 320 325 325 325 323 324 322 321 322 321 325 326 327 326 326 326 328 329 327 331
307 306 307 307 307 307 307 307 307 308 308 308 308 308 304 304 306 305 312 308 303 304 311 306 320 319 323 326 326 327 327 324 321 321 322 323 327 327 327 327 327 328 329 327 329
306 306 306 306 306 306 307 307 307 308 308 308 309 308 305 304 302 310 313 303 305 309 311 315 314 321 322 322 327 327 328 325 323 322 322 323 323 325 325 326 326 327 328 328 328
306 306 306 305 306 306 303 303 304 306 308 310 308 308 305 304 301 309 309 304 307 307 314 313 312 313 318 321 323 325 327 326 325 324 325 325 325 327 327 326 325 327 328 328 328
305 304 303 302 303 303 303 304 305 307 309 310 309 308 305 305 302 302 306 308 308 307 307 316 310 314 316 319 320 324 324 326 327 326 326 327 328 329 330 329 329 330 330 329 329
304 303 301 300 302 304 305 306 307 307 309 310 309 307 306 305 304 305 308 309 307 307 307 307 315 311 313 315 318 321 322 323 324 329 329 330 330 330 330 330 329 328 328 328 327
303 303 304 303 302 304 305 306 307 306 308 307 309 307 308 307 305 307 307 308 307 306 307 307 306 312 313 312 314 316 320 320 322 325 326 327 327 328 328 327 327 328 327 327 327
303 302 303 303 302 303 305 307 306 306 308 308 309 307 309 306 307 307 307 307 307 306 306 307 305 305 313 314 313 315 316 319 320 318 319 322 327 327 326 326 327 327 327 326 326
300 301 303 302 301 304 306 306 306 307 308 309 308 309 308 306 308 307 307 308 307 307 306 306 306 305 311 314 315 315 318 319 320 320 320 320 324 325 324 325 326 327 327 326 326
301 300 303 304 301 304 306 306 306 310 310 310 309 309 307 307 307 307 307 307 307 307 308 308 307 309 310 314 317 316 316 318 320 320 319 321 323 323 323 323 325 325 325 325 326
303 302 303 303 301 305 305 306 307 307 305 306 306 307 306 306 306 307 308 307 307 308 309 308 307 308 309 313 314 315 316 317 318 319 320 321 323 323 323 322 323 324 325 326 325
298 302 303 302 301 305 306 307 306 305 309 306 306 305 305 305 306 308 306 307 307 308 307 307 307 307 309 310 312 314 315 315 316 316 318 320 322 322 321 321 322 323 324 324 324
297 303 304 302 301 305 306 306 306 306 308 307 306 305 307 306 308 308 307 307 306 306 308 308 307 307 308 309 311 312 314 315 316 316 316 317 319 320 319 319 319 319 320 320 322
299 304 305 303 304 304 306 306 306 305 308 305 307 307 306 307 307 308 308 309 306 305 307 307 307 305 307 309 310 313 312 313 314 315 318 316 320 320 320 320 319 319 319 320 319
300 304 305 304 303 305 305 306 305 303 306 306 307 306 307 307 307 308 310 310 311 310 305 307 306 305 307 308 309 310 310 312 313 315 316 316 317 318 318 318 318 319 319 318 319
302 306 302 303 303 305 306 306 303 307 306 307 307 307 308 307 307 307 308 311 311 312 311 309 307 305 305 307 308 309 310 311 311 313 316 315 316 317 317 318 317 317 317 318 318
304 306 303 304 305 305 307 304 307 308 307 308 308 307 307 308 307 307 308 313 314 315 314 310 310 308 306 306 306 307 310 312 313 313 314 313 315 316 318 317 316 316 317 318 319
305 307 306 308 308 307 303 305 308 308 308 308 308 308 308 307 307 307 307 311 312 313 316 313 314 310 309 307 306 307 309 310 311 312 312 312 314 315 316 316 316 316 317 318 319
306 308 308 307 307 306 306 311 307 308 308 309 308 308 308 306 307 307 307 310 311 311 313 314 315 311 311 310 308 308 307 309 309 311 312 312 313 313 314 316 316 316 317 318 321
304 306 306 307 307 304 307 309 308 307 308 308 309 309 309 308 308 308 307 310 309 309 311 312 314 311 311 310 308 309 309 308 308 310 310 312 313 314 316 314 316 316 317 319 325
304 309 306 306 305 308 310 308 308 307 308 308 309 309 309 309 308 308 308 308 307 309 310 311 312 311 310 310 311 310 310 310 309 310 311 311 313 316 315 316 316 316 316 317 322
302 311 305 304 310 304 308 306 306 308 308 308 309 309 309 308 309 308 308 309 307 308 309 310 312 313 311 309 309 309 310 309 312 311 310 311 312 314 315 314 316 316 316 317 320
304 304 304 303 308 307 306 306 306 308 308 308 309 307 307 308 309 309 307 306 306 307 309 310 310 310 308 313 311 311 310 310 310 312 314 312 311 313 314 315 316 316 316 317 320
304 308 304 303 302 305 305 306 307 306 308 307 307 307 308 308 307 308 307 306 307 308 309 310 311 311 311 310 311 312 311 310 312 314 312 313 313 313 314 315 316 316 317 318 319
300 304 303 306 303 302 304 304 306 307 308 307 308 308 309 310 307 307 307 308 307 308 308 310 311 310 309 310 310 311 311 312 312 311 313 311 312 313 315 315 315 316 318 318 320
300 304 302 302 301 304 304 306 306 308 306 307 309 308 308 309 308 309 307 309 310 309 310 310 312 310 310 308 308 310 310 310 312 312 312 311 312 311 312 312 313 316 319 320 322
297 297 301 303 303 303 304 305 304 304 306 306 307 308 308 308 306 307 308 308 308 309 312 311 312 311 309 307 311 312 311 311 312 312 311 312 311 311 311 312 314 320 321 322 324

GFSSW_925_thetae_060.txt.gz
Theta_e
307 307 308 307 307 308 308 308 308 308 309 309 309 306 302 302 303 308 307 308 308 305 304 311 312 322 324 325 324 326 327 326 323 320 320 321 323 324 328 329 331 331 332 331 338
307 307 307 307 307 307 307 307 306 308 308 309 308 306 305 303 309 308 311 305 305 308 312 311 313 318 324 327 326 328 329 327 325 323 322 321 322 325 328 329 332 331 331 330 332
306 307 307 306 307 307 307 305 304 306 308 308 307 306 306 307 308 313 312 306 307 307 310 313 310 319 321 324 327 328 330 327 327 324 323 322 322 323 326 329 332 332 331 332 331
306 306 306 305 304 304 304 304 306 306 308 307 306 307 304 308 307 314 311 308 307 307 312 314 314 315 322 324 325 328 329 329 328 326 325 324 323 324 323 324 327 328 329 329 331
305 306 306 305 303 303 305 306 306 306 307 307 306 307 310 310 306 304 307 309 309 309 308 311 315 314 317 322 324 326 326 327 326 327 326 326 326 327 327 326 326 327 329 331 332
305 305 305 305 303 303 305 306 307 307 307 306 306 307 310 310 306 307 309 310 310 309 309 309 312 315 314 317 320 323 324 325 326 326 327 327 327 329 330 330 330 331 332 331 331
302 303 304 304 301 303 304 306 306 306 306 307 308 310 312 309 308 309 310 310 310 309 310 309 309 310 316 316 316 319 321 322 324 325 326 328 330 331 330 331 332 331 331 331 331
302 300 302 304 303 303 304 306 306 306 308 308 308 310 312 308 309 310 309 310 310 310 309 309 309 309 310 314 317 316 318 321 322 324 325 326 330 329 329 329 331 331 331 331 331
298 297 298 300 300 303 305 305 306 308 308 309 312 312 310 308 309 309 309 310 309 309 309 309 309 309 308 311 315 318 318 320 321 322 324 325 328 328 328 329 329 330 330 330 331
297 297 299 301 300 303 305 306 306 310 311 311 311 314 309 308 308 308 309 309 310 310 310 311 311 311 309 309 314 316 318 318 320 322 322 323 324 325 327 327 329 329 329 330 330
302 302 303 304 300 304 307 309 312 311 309 309 309 309 308 308 308 309 309 310 310 310 311 311 312 311 310 310 310 313 316 319 319 319 322 324 324 325 325 325 327 328 329 329 329
303 303 305 305 300 305 308 310 309 308 310 309 308 309 308 308 309 309 309 311 311 311 310 310 311 310 310 310 309 311 314 317 319 318 320 322 324 324 325 325 326 327 328 328 328
303 305 305 306 301 308 309 309 308 308 311 308 308 308 308 308 308 309 310 310 311 311 310 310 310 310 309 309 310 311 313 315 317 318 320 321 323 324 324 325 325 325 326 325 326
302 304 305 304 307 307 310 308 308 308 312 308 309 308 308 308 309 308 309 310 311 311 311 310 309 310 310 309 309 310 310 311 314 318 320 320 323 323 323 324 324 325 325 325 325
298 305 303 302 307 310 308 308 308 308 312 307 308 307 308 308 308 309 308 311 312 312 313 313 311 309 309 308 309 309 310 311 314 316 318 318 322 322 322 323 323 324 324 323 323
299 306 304 307 309 308 308 308 308 313 312 309 308 309 309 308 308 308 308 312 312 313 313 313 312 311 310 309 308 310 310 311 314 316 320 318 319 320 320 321 322 322 321 321 321
300 306 307 307 310 308 309 309 313 312 309 310 309 309 309 308 308 308 308 308 313 315 313 313 313 312 311 309 309 309 311 313 315 317 318 317 319 320 321 320 320 321 320 320 321
302 307 308 309 309 309 309 311 314 309 309 309 309 310 308 308 308 308 309 308 312 313 316 316 314 312 312 311 311 309 310 314 315 316 315 315 317 318 318 319 320 319 320 321 324
305 310 311 309 309 308 311 315 311 310 309 310 310 309 309 308 308 308 309 308 310 310 313 314 314 312 311 311 311 310 310 310 311 311 314 315 316 316 318 319 319 319 319 321 324
307 311 310 307 309 310 311 310 311 309 309 309 310 309 310 309 309 309 308 308 309 309 309 311 315 311 312 312 311 312 310 311 310 315 314 314 316 316 317 317 318 319 320 321 323
309 312 308 306 308 310 313 310 309 308 309 309 310 310 310 310 309 309 309 308 308 309 308 309 311 312 312 312 313 314 310 311 313 310 310 314 315 317 318 319 320 320 320 320 321
307 312 308 306 310 309 308 307 306 309 309 309 309 310 310 310 310 309 309 309 308 308 309 309 311 312 311 310 310 311 314 315 317 315 312 313 318 318 319 320 320 319 320 320 321
306 306 306 306 310 307 307 307 308 309 308 309 310 309 309 309 310 308 308 308 307 308 310 311 311 313 310 313 312 312 310 311 313 314 319 314 315 318 318 317 317 318 319 320 320
307 311 310 307 306 306 306 309 309 308 308 308 308 308 309 309 309 311 309 308 308 308 308 311 313 312 314 311 311 311 312 312 312 315 313 314 315 316 317 316 317 318 319 318 319
306 309 307 313 310 307 307 307 308 309 308 308 309 309 309 311 310 310 309 310 310 310 310 311 314 312 310 310 309 310 310 311 313 312 313 313 313 314 315 316 316 317 316 315 318
307 307 306 306 307 307 307 308 307 308 306 308 308 308 308 309 309 311 310 311 312 310 312 312 313 312 312 310 310 310 310 310 310 310 312 312 313 312 313 313 313 314 314 316 320
299 300 303 306 307 307 308 306 306 306 306 307 308 310 309 309 310 310 310 310 310 311 311 313 313 313 314 310 309 311 311 311 311 311 312 313 312 313 313 313 314 314 314 316 320

GFSSW_925_thetae_063.txt.gz
Theta_e
308 308 308 308 308 308 308 308 304 303 303 303 304 305 306 305 302 311 314 311 310 305 305 311 315 321 323 327 328 328 330 329 326 325 323 323 323 325 327 328 329 332 335 336 339
307 307 308 308 308 308 308 308 305 305 306 306 306 305 305 305 311 312 310 304 306 305 314 313 317 318 325 327 328 329 331 330 327 327 325 323 324 323 326 328 331 333 334 333 338
307 307 307 307 308 308 308 308 306 307 307 308 307 305 306 308 315 317 307 308 306 307 312 312 315 317 322 325 329 329 331 330 329 328 327 325 325 324 324 327 331 333 334 334 334
306 307 307 307 307 305 305 306 307 307 307 307 306 305 307 313 313 318 307 308 308 310 310 314 316 317 317 322 325 329 330 330 330 329 329 327 326 326 325 325 328 332 334 333 333
304 305 305 304 303 302 304 305 306 307 306 307 305 307 313 316 310 307 308 311 312 311 310 312 316 317 318 319 323 325 326 328 329 329 329 329 328 329 328 327 326 326 330 331 332
303 303 302 301 301 301 303 305 306 306 306 306 306 308 316 316 309 310 311 311 312 312 312 312 312 315 318 318 320 322 325 326 327 328 329 329 329 329 329 329 329 327 327 329 331
300 299 301 301 301 301 303 305 305 305 306 306 307 312 315 312 310 311 312 312 312 312 313 312 312 312 315 318 318 319 320 321 324 326 328 328 329 330 330 329 330 331 330 331 332
297 297 299 301 302 301 304 305 305 305 306 307 307 315 316 309 310 311 310 311 311 311 312 311 312 313 312 313 314 316 319 320 322 323 325 326 329 328 328 330 331 331 331 331 332
303 301 301 300 302 301 305 306 306 307 307 308 315 315 314 310 310 309 309 311 311 311 311 311 312 313 313 311 311 313 316 320 320 321 323 324 328 328 328 329 330 331 331 332 331
305 303 302 304 303 301 306 309 310 311 314 314 313 316 313 310 309 308 310 310 311 311 311 312 313 314 313 312 311 312 313 315 318 320 321 322 325 326 327 328 329 331 331 331 331
305 304 306 306 304 302 308 313 316 317 313 312 311 310 309 309 308 309 310 310 312 312 313 313 312 314 314 314 313 313 312 313 316 318 320 321 323 324 326 326 327 329 330 331 331
306 304 305 305 302 304 309 313 311 311 313 312 311 310 309 309 310 310 310 312 312 313 313 313 313 312 313 313 312 312 313 314 314 315 319 322 322 323 325 326 326 327 329 330 331
303 302 304 304 302 308 311 311 310 311 314 311 310 310 310 309 310 310 310 311 311 311 312 313 312 312 312 312 312 312 313 313 313 314 316 319 321 323 323 324 326 326 327 329 330
303 302 303 303 310 310 313 311 311 311 317 312 311 311 309 310 310 309 310 311 311 312 312 313 312 313 310 312 312 312 312 311 312 314 316 318 322 323 323 324 324 325 326 328 329
303 304 302 307 312 313 311 311 310 311 322 311 310 310 310 310 310 311 310 310 311 312 312 312 313 313 314 311 311 311 311 311 311 313 315 315 319 321 323 323 325 325 326 327 327
303 305 308 312 313 311 311 311 311 319 318 310 311 311 311 311 310 310 309 310 310 310 312 312 314 314 313 313 311 311 310 311 311 312 315 315 317 320 322 324 324 325 326 326 326
303 306 310 310 313 311 311 312 318 317 311 312 311 311 311 311 309 309 310 310 309 311 312 312 312 314 312 314 314 311 312 311 313 315 314 315 318 319 320 321 322 322 324 324 324
303 307 310 311 311 311 312 316 317 312 313 311 311 311 311 310 310 310 310 310 309 310 313 314 315 313 313 313 314 313 312 312 316 315 315 316 317 319 319 320 322 322 323 323 323
308 312 313 312 311 310 315 318 315 313 311 311 311 311 311 310 310 311 311 310 310 310 311 313 313 311 312 314 313 314 314 313 313 313 317 318 317 319 320 320 321 322 322 322 324
309 312 313 310 310 311 315 314 312 311 311 311 312 311 312 312 311 311 310 310 309 309 310 311 312 311 313 315 312 313 313 317 315 315 313 317 317 318 319 320 321 322 322 323 324
310 316 311 308 309 315 315 311 310 311 311 311 312 312 312 311 311 311 311 310 311 309 310 309 310 311 311 315 315 314 315 314 314 316 315 318 318 318 319 320 322 323 323 323 323
312 316 310 306 314 312 311 309 306 311 311 311 310 311 312 311 311 311 311 310 310 309 309 311 314 311 310 310 312 312 314 316 321 320 315 315 316 317 321 321 321 322 322 322 323
312 312 310 309 317 314 310 308 310 311 312 310 310 311 310 311 313 312 312 310 310 309 312 312 313 316 312 311 315 315 315 315 315 317 318 321 321 319 323 323 322 322 321 321 321
310 314 312 312 311 312 312 311 311 310 311 310 310 310 311 312 311 313 312 312 311 311 311 311 314 313 317 314 314 315 314 312 314 317 316 317 315 318 318 321 320 319 319 320 319
311 312 311 313 313 313 312 311 310 311 311 310 311 310 311 313 312 312 313 312 312 312 312 313 316 313 313 312 312 311 310 310 310 312 312 314 313 315 317 316 319 317 317 317 318
309 309 308 309 310 311 310 312 310 310 310 310 311 310 309 311 311 313 312 313 315 314 313 313 316 314 313 312 311 310 310 310 310 311 311 312 312 312 313 315 315 315 316 316 317
305 306 306 310 310 311 313 311 311 310 309 309 310 311 311 310 311 311 312 313 313 314 315 313 314 315 315 312 314 313 312 316 316 312 313 313 313 313 314 314 315 315 316 317 317

GFSSW_925_thetae_069.txt.gz
Theta_e
308 308 308 308 308 309 309 307 306 304 306 306 308 310 310 306 305 308 312 312 313 311 309 310 311 313 315 320 321 320 324 329 328 326 326 324 324 324 323 322 322 323 329 337 338
307 308 308 308 308 307 305 303 304 304 305 306 306 306 306 307 311 313 311 312 310 307 307 310 313 313 313 317 320 320 324 326 328 327 327 326 327 326 323 322 323 323 332 334 335
305 305 304 302 302 302 302 302 303 304 305 306 306 306 306 308 315 315 314 308 306 305 309 311 312 312 313 314 318 323 324 325 327 328 327 327 327 327 326 325 323 323 324 331 333
300 299 299 298 299 300 301 301 302 303 304 305 305 306 306 313 320 313 308 310 310 310 313 314 311 310 313 313 315 317 323 326 327 327 327 327 327 328 327 325 326 326 324 324 329
306 306 306 301 298 299 300 300 302 303 304 304 305 306 308 318 318 309 311 312 312 313 315 314 310 309 311 314 315 316 316 317 320 324 326 327 327 327 327 327 327 327 327 325 326
308 307 306 302 300 300 301 300 302 304 305 305 305 306 316 321 311 312 312 313 313 313 313 312 312 311 311 310 310 312 314 316 317 316 318 325 327 327 327 327 328 328 327 327 326
309 309 308 305 302 301 302 301 302 305 306 305 306 313 315 316 311 311 312 313 312 313 313 313 312 311 310 310 311 311 310 312 315 317 317 317 320 324 327 326 327 328 328 328 327
310 309 308 306 306 306 304 301 303 307 307 307 307 314 317 313 310 311 310 310 311 312 312 312 312 311 311 310 311 310 310 310 313 315 317 316 317 318 320 326 327 327 328 328 327
309 308 306 307 308 306 305 300 303 306 309 307 312 314 320 311 311 310 309 310 311 311 311 311 312 311 311 310 309 310 309 309 311 311 312 314 317 318 318 320 325 327 327 327 327
307 305 304 306 306 305 302 302 308 312 314 315 315 316 314 313 310 309 309 311 311 311 312 311 309 310 309 309 310 310 309 310 311 311 310 310 311 313 316 319 320 323 326 327 327
304 305 304 303 304 304 302 312 314 315 314 319 318 316 313 311 310 310 311 311 312 313 311 311 310 310 310 311 312 312 312 312 313 314 312 312 313 313 314 313 314 319 321 325 326
304 305 304 303 301 301 303 310 311 312 311 313 312 312 311 310 310 312 310 310 310 310 310 309 310 312 313 313 313 312 312 312 313 313 313 312 312 312 313 313 313 314 318 322 325
304 305 304 304 306 309 309 313 312 312 311 314 313 311 311 310 310 311 311 310 310 309 310 310 311 312 312 311 312 312 311 311 312 312 312 312 312 312 312 313 314 314 315 320 324
303 305 304 306 309 312 314 312 313 311 313 314 310 311 310 309 310 312 311 310 310 309 310 309 310 312 312 312 312 313 314 315 314 311 311 312 312 311 312 312 312 313 315 316 320
303 304 304 305 307 312 312 312 313 312 326 313 311 310 311 309 311 311 311 310 309 309 309 308 308 310 311 312 315 315 314 314 314 312 309 310 309 310 310 311 312 312 314 316 318
304 305 305 312 312 313 311 312 314 320 325 311 311 311 310 311 312 312 311 310 309 309 309 309 309 313 315 314 314 313 313 313 311 309 310 309 310 310 309 310 311 312 313 314 317
305 306 306 307 313 312 311 313 318 325 315 313 312 311 310 311 312 310 310 309 309 311 310 310 309 314 314 313 312 311 313 316 315 313 313 311 311 310 311 313 314 314 314 314 314
306 308 308 312 312 312 311 315 323 320 314 313 312 312 312 312 311 311 310 310 311 310 309 310 310 309 314 313 311 312 314 319 318 313 312 312 314 312 312 313 314 314 314 314 315
308 313 313 316 313 309 311 318 321 313 312 312 312 313 312 312 312 311 310 310 311 310 311 311 312 311 310 310 310 310 311 310 312 311 313 312 313 313 315 318 319 318 317 317 316
307 312 315 311 309 311 314 319 315 311 311 312 313 313 312 312 312 310 311 312 312 311 309 311 310 310 310 311 311 311 310 312 313 316 316 313 312 313 319 319 317 317 315 316 317
310 316 315 310 310 313 317 314 311 309 310 312 313 313 312 312 311 311 312 312 313 311 310 310 312 313 310 311 312 313 313 316 317 319 320 317 314 320 318 317 317 315 315 316 318
311 317 312 311 314 318 315 314 312 311 312 313 312 312 312 313 312 312 313 313 312 313 313 312 311 311 311 310 314 315 316 314 318 319 318 318 317 317 316 315 316 315 315 318 320
311 314 314 313 315 314 314 313 313 312 312 311 312 312 311 311 313 313 314 313 313 313 314 313 312 314 311 311 312 313 312 312 312 312 316 318 315 313 315 315 316 317 317 318 319
312 315 314 312 311 313 312 313 314 313 312 312 312 312 312 312 311 313 313 312 312 312 314 313 313 313 314 313 312 314 313 312 313 315 314 315 314 316 317 316 316 315 315 316 316
310 312 311 311 311 312 312 313 314 315 312 311 312 311 310 313 312 311 310 311 311 313 313 313 315 315 314 313 313 312 313 313 314 313 315 316 317 317 316 315 316 316 316 316 316
307 308 307 308 311 313 313 313 312 312 311 311 311 312 310 311 310 312 310 311 313 313 313 313 317 315 316 313 314 315 314 314 313 313 314 314 316 315 316 316 316 316 317 316 316
307 306 307 309 311 310 310 310 311 310 310 310 310 310 310 310 311 310 309 309 310 311 311 315 317 314 314 313 314 315 318 317 315 314 314 314 315 314 314 315 316 317 317 322 323

GFSSW_925_thetae_072.txt.gz
Theta_e
307 308 308 308 308 307 306 303 303 304 304 305 308 306 306 306 306 308 311 306 312 311 311 310 310 311 312 317 320 319 323 327 328 327 326 325 325 324 323 321 321 322 329 335 336
306 306 307 307 307 306 304 303 302 303 304 305 305 306 305 307 310 313 306 310 311 309 307 309 311 312 311 314 318 319 319 324 326 326 326 326 326 326 326 326 324 322 323 324 330
307 307 307 307 306 306 303 302 301 302 303 304 305 305 305 310 313 317 313 312 309 306 305 310 311 310 311 312 316 319 321 323 324 324 325 327 327 326 326 326 327 324 324 323 323
309 308 308 307 307 305 302 301 301 301 303 304 304 304 305 313 319 313 309 309 309 306 312 313 311 310 311 312 313 314 316 321 323 324 325 325 325 326 326 326 326 327 325 324 324
310 310 310 309 307 306 303 301 301 301 303 305 305 305 309 317 318 310 311 311 311 312 314 314 312 308 309 311 311 312 313 314 315 317 322 325 326 325 326 326 326 327 326 326 325
308 309 309 308 308 307 306 302 301 301 304 306 306 307 315 319 312 312 312 312 312 313 312 311 310 310 309 309 309 309 310 310 311 312 314 315 316 322 325 325 326 326 326 326 326
309 308 306 306 307 307 308 306 302 301 305 307 307 313 314 311 313 312 312 312 312 313 312 312 311 310 309 309 309 309 309 309 311 313 314 315 316 317 317 320 323 325 326 325 326
304 304 305 308 308 307 305 305 301 301 305 307 307 314 313 316 312 310 310 309 310 311 312 312 312 311 310 309 309 309 308 308 311 310 313 315 315 316 316 316 318 321 325 325 325
302 304 305 308 308 307 304 302 301 302 308 309 312 313 318 313 311 309 309 309 310 310 310 311 310 309 310 309 306 307 308 309 309 309 310 310 310 311 313 314 315 316 320 324 326
301 303 304 305 303 302 302 307 311 313 315 314 314 315 314 313 310 309 309 309 310 309 311 311 306 308 306 307 310 309 308 309 310 311 311 310 310 311 311 312 312 311 312 317 324
301 302 304 304 304 303 304 313 307 311 314 316 318 317 317 310 310 309 311 310 311 310 309 309 308 308 307 307 310 311 311 311 311 311 311 310 310 311 311 310 310 311 312 312 314
302 302 305 305 305 306 307 310 310 311 310 311 313 314 314 310 309 311 310 309 309 308 308 307 308 310 310 311 311 311 311 310 310 311 311 310 310 311 311 310 310 310 310 311 312
302 303 305 305 307 311 310 312 311 312 309 311 312 312 311 309 310 310 310 309 309 309 308 308 308 310 310 311 311 311 311 313 313 313 310 310 310 310 311 310 310 310 309 310 310
301 304 305 306 311 309 312 311 312 311 312 316 309 310 309 308 309 310 310 309 309 309 308 307 308 308 310 311 312 313 314 314 314 314 312 310 311 309 309 309 309 309 308 308 309
301 305 304 306 309 310 312 310 312 312 314 313 310 310 309 308 310 311 310 309 308 308 308 307 308 307 309 314 314 314 313 312 313 313 310 310 307 310 308 309 309 309 308 309 309
303 306 305 310 310 312 312 311 313 318 315 311 310 310 309 309 309 310 310 309 308 307 307 307 308 312 313 313 312 312 312 311 310 308 309 309 308 310 308 308 308 311 312 314 315
305 307 306 307 310 312 311 310 314 319 314 312 311 311 310 310 311 310 309 309 307 309 308 308 308 313 313 312 309 309 311 313 313 311 313 310 310 310 310 310 316 317 316 315 314
308 312 310 311 312 313 310 312 319 313 312 312 312 311 311 311 311 311 310 309 309 308 306 308 308 310 312 311 310 309 310 312 317 317 315 311 312 310 315 316 316 315 314 314 313
310 314 315 315 314 310 308 313 317 312 311 312 312 312 311 312 311 310 309 311 311 309 310 310 311 309 309 309 309 309 309 309 313 311 312 310 310 310 315 316 315 315 314 312 313
309 311 314 311 309 311 310 317 310 309 309 312 313 312 312 311 310 309 310 312 312 310 307 309 310 309 310 309 309 310 310 311 310 315 317 313 312 312 317 317 316 314 313 313 313
311 312 315 310 310 309 312 312 311 312 311 312 312 312 311 311 310 310 311 311 312 312 309 310 310 311 309 309 309 311 312 313 311 312 313 317 313 316 317 315 315 314 315 314 315
306 312 314 311 310 309 312 312 312 313 311 311 311 311 311 311 310 311 312 313 312 312 312 311 310 311 311 310 309 313 313 314 309 312 315 315 313 313 314 313 314 315 314 313 314
304 308 313 312 310 309 310 311 312 312 311 310 310 311 310 310 310 312 312 312 312 313 313 312 310 313 309 308 309 312 311 311 311 311 315 315 312 315 314 314 315 314 315 314 315
305 308 306 304 305 309 309 311 312 312 312 311 310 310 310 310 310 311 312 311 310 310 314 313 310 311 311 311 309 313 313 312 311 316 314 313 313 315 316 316 315 317 316 316 317
301 305 305 305 305 306 309 311 312 312 310 309 309 310 309 310 310 310 310 309 310 311 312 311 312 313 313 314 314 314 314 314 314 312 314 314 317 315 315 315 315 317 318 317 319
302 303 301 303 305 309 309 309 310 309 308 308 309 310 309 308 308 309 310 310 310 309 310 309 312 315 316 314 313 313 313 314 314 314 313 313 313 313 312 312 314 316 318 319 319
305 304 301 303 305 305 305 306 309 307 308 308 307 307 308 308 308 307 306 307 308 310 309 310 310 313 315 313 314 316 316 317 315 314 313 315 312 312 312 313 313 313 314 315 317

GFSSW_925_thetae_075.txt.gz
Theta_e
307 307 307 307 308 307 307 308 308 309 309 308 308 304 305 305 307 308 309 304 308 305 310 311 309 310 311 312 318 318 325 329 328 327 325 324 325 323 325 325 325 320 324 324 337
310 309 308 308 308 308 307 308 308 309 309 307 304 304 304 307 310 311 312 305 310 311 308 308 309 311 310 312 316 318 319 326 326 325 326 325 325 326 327 326 325 325 323 324 331
310 310 310 310 310 307 307 307 308 308 308 307 304 304 304 310 313 316 311 310 311 308 306 308 310 310 310 311 315 318 319 322 324 323 324 324 324 324 325 325 326 325 323 322 323
309 309 310 310 308 307 306 307 307 307 305 304 305 304 305 313 318 315 310 310 308 306 309 312 310 309 309 311 312 314 316 319 321 321 322 322 323 325 324 324 325 325 324 323 323
306 308 309 307 308 308 308 308 307 304 301 305 305 307 309 316 317 313 310 309 309 311 313 313 311 308 309 309 309 311 312 312 312 312 316 319 320 322 321 320 323 324 325 324 323
306 305 306 307 309 308 309 307 306 303 301 307 307 309 314 318 312 311 311 310 311 312 312 311 309 308 308 309 309 308 309 310 310 311 311 313 314 315 317 317 318 321 323 323 323
307 305 306 308 309 309 309 307 304 302 302 307 308 313 313 311 313 311 311 311 312 312 311 311 310 310 308 309 308 309 308 308 310 311 312 313 313 314 315 316 316 317 317 319 322
307 302 303 306 308 307 306 303 302 300 303 308 310 315 310 315 316 311 311 311 309 309 312 311 311 309 309 308 306 308 305 306 308 309 310 312 314 314 312 313 314 315 315 315 317
307 303 303 305 306 303 302 304 305 302 306 309 312 312 316 314 311 309 308 308 310 310 310 310 309 308 308 306 306 305 306 308 308 308 308 310 309 309 310 311 311 311 311 312 312
304 301 303 304 304 305 308 312 314 313 313 314 313 314 314 313 310 309 309 309 309 309 310 309 304 307 304 306 308 309 308 308 309 310 309 309 310 310 310 310 311 310 310 310 311
301 301 303 305 305 307 311 311 306 308 314 312 316 316 317 314 310 309 310 309 309 307 308 307 307 307 307 306 308 309 310 309 309 309 309 308 309 309 309 309 309 309 309 309 310
299 302 304 304 306 310 311 310 311 310 310 309 311 314 315 314 310 309 310 309 308 308 307 305 307 308 308 308 308 309 310 310 310 312 312 310 311 309 309 309 309 309 309 308 308
300 303 305 304 308 311 311 311 311 310 308 310 311 311 310 310 309 309 309 308 309 308 307 306 307 308 310 310 310 310 313 314 313 313 311 310 312 311 309 309 309 308 308 307 307
301 305 305 308 310 310 311 311 310 310 313 315 310 309 308 308 308 309 309 309 308 308 307 307 307 308 307 309 312 312 313 312 312 312 311 311 311 310 309 308 308 307 306 304 305
303 306 305 311 310 310 312 311 311 311 312 314 309 309 307 307 309 311 309 308 307 307 307 307 307 307 307 310 313 310 312 311 312 312 311 310 308 309 309 310 308 306 312 312 313
305 307 305 308 309 312 311 309 312 313 313 312 310 309 309 309 308 309 309 308 308 307 306 306 306 308 310 312 311 311 311 308 309 307 310 309 309 308 307 308 308 314 315 314 313
307 309 306 306 309 311 311 309 314 314 312 312 311 310 310 309 310 309 309 307 306 308 307 307 307 312 311 311 308 307 306 308 309 311 312 309 311 309 308 312 314 316 314 313 312
309 311 314 313 313 313 310 309 314 312 312 311 311 310 311 310 310 309 309 308 309 306 306 307 307 309 310 310 308 308 307 308 312 313 309 309 312 309 309 314 314 315 313 313 311
312 313 315 314 311 310 307 310 308 310 310 311 311 311 311 311 310 309 309 310 309 308 309 309 310 309 308 308 307 308 308 306 310 309 310 309 309 308 309 314 314 313 312 312 312
312 313 314 312 309 310 308 314 309 308 309 311 312 312 311 310 310 309 309 312 311 310 306 308 311 309 309 308 308 310 309 310 306 313 314 311 310 311 310 311 314 312 312 313 313
312 310 313 311 310 308 309 311 311 312 311 311 311 311 310 310 310 310 310 310 312 311 309 309 308 310 309 308 308 308 310 311 307 308 308 313 311 309 312 312 313 312 313 312 311
306 310 312 311 307 304 309 311 311 312 310 311 310 310 310 310 309 310 310 312 311 311 312 311 309 311 311 308 309 308 310 310 308 310 312 312 313 309 312 312 312 312 313 312 312
305 307 311 310 306 306 306 310 310 312 311 310 310 310 310 310 311 310 311 311 311 311 311 310 309 312 309 307 307 311 312 311 309 309 315 315 312 312 312 313 313 313 313 314 314
303 306 303 302 302 307 308 310 311 312 311 309 310 309 309 309 308 309 311 311 310 310 312 312 308 312 311 309 307 311 312 311 313 316 313 313 312 311 311 312 313 314 313 314 315
299 304 303 304 302 305 307 310 311 310 307 306 308 309 309 309 309 309 309 309 310 310 310 309 311 310 311 312 312 313 314 314 314 313 315 313 312 311 311 312 313 312 314 316 319
301 302 300 302 303 306 306 307 308 309 307 307 307 307 307 307 307 307 307 307 309 309 310 307 310 311 314 314 314 314 313 313 312 312 313 313 313 310 310 310 311 312 313 314 315
302 301 300 302 304 303 303 305 307 307 307 307 306 305 306 306 307 306 305 306 308 308 308 309 310 311 313 311 313 315 314 313 315 313 313 314 313 311 311 311 311 312 312 313 314